| time (UTC) | temp C | wind direction | speed KPH | gust KPH | rain 1hr cm | rain 24hr cm | rain mn cm | humidity % | barometer mb |
| 20260510104443 | 19 | 71 | 12.9 | 16.1 | 0.00 | 0.00 | 0.00 | 99 | 1016.1 |
| 20260510103939 | 19 | 80 | 11.3 | 14.5 | 0.00 | 0.00 | 0.00 | 99 | 1016.2 |
| 20260510103437 | 19 | 75 | 11.3 | 17.7 | 0.00 | 0.00 | 0.00 | 99 | 1016.2 |
| 20260510102932 | 19 | 77 | 11.3 | 16.1 | 0.00 | 0.00 | 0.00 | 99 | 1016.0 |
| 20260510102428 | 19 | 74 | 11.3 | 16.1 | 0.00 | 0.00 | 0.00 | 99 | 1016.0 |
| 20260510101925 | 19 | 77 | 12.9 | 14.5 | 0.00 | 0.00 | 0.00 | 99 | 1016.0 |
| 20260510101423 | 19 | 78 | 12.9 | 17.7 | 0.00 | 0.00 | 0.00 | 99 | 1016.0 |
| 20260510100921 | 19 | 71 | 16.1 | 17.7 | 0.00 | 0.00 | 0.00 | 99 | 1016.0 |
| 20260510100417 | 19 | 66 | 16.1 | 17.7 | 0.00 | 0.00 | 0.00 | 99 | 1015.7 |
| 20260510095913 | 19 | 89 | 11.3 | 14.5 | 0.00 | 0.00 | 0.00 | 99 | 1015.8 |
| 20260510095409 | 19 | 84 | 9.7 | 14.5 | 0.00 | 0.00 | 0.00 | 99 | 1015.7 |
| 20260510094908 | 19 | 78 | 14.5 | 14.5 | 0.00 | 0.00 | 0.00 | 99 | 1015.5 |
| 20260510094403 | 19 | 86 | 11.3 | 16.1 | 0.00 | 0.00 | 0.00 | 99 | 1015.5 |
| 20260510093900 | 19 | 87 | 11.3 | 17.7 | 0.00 | 0.00 | 0.00 | 99 | 1015.4 |
| 20260510093355 | 19 | 94 | 9.7 | 16.1 | 0.00 | 0.00 | 0.00 | 99 | 1015.5 |
| 20260510092852 | 19 | 80 | 12.9 | 17.7 | 0.00 | 0.00 | 0.00 | 99 | 1015.3 |
| 20260510092349 | 19 | 95 | 9.7 | 16.1 | 0.00 | 0.00 | 0.00 | 99 | 1015.3 |
| 20260510091844 | 19 | 97 | 11.3 | 16.1 | 0.00 | 0.00 | 0.00 | 99 | 1015.5 |
| 20260510091341 | 19 | 86 | 9.7 | 14.5 | 0.00 | 0.00 | 0.00 | 99 | 1015.4 |
| 20260510090837 | 19 | 84 | 12.9 | 14.5 | 0.00 | 0.00 | 0.00 | 99 | 1015.5 |
| 20260510090329 | 19 | 92 | 14.5 | 16.1 | 0.00 | 0.00 | 0.00 | 99 | 1015.4 |
| 20260510085824 | 19 | 83 | 11.3 | 17.7 | 0.00 | 0.00 | 0.00 | 99 | 1015.7 |
| 20260510085319 | 19 | 82 | 12.9 | 17.7 | 0.00 | 0.00 | 0.00 | 99 | 1015.6 |
| 20260510084815 | 18 | 82 | 14.5 | 14.5 | 0.05 | 0.00 | 0.00 | 99 | 1015.6 |
| 20260510084312 | 18 | 86 | 12.9 | 16.1 | 0.05 | 0.00 | 0.00 | 99 | 1015.6 |
| 20260510083809 | 18 | 83 | 16.1 | 17.7 | 0.00 | 0.00 | 0.00 | 99 | 1015.5 |
| 20260510083306 | 18 | 71 | 16.1 | 17.7 | 0.00 | 0.00 | 0.00 | 99 | 1015.6 |
| 20260510082801 | 18 | 78 | 12.9 | 14.5 | 0.00 | 0.00 | 0.00 | 99 | 1015.5 |
| 20260510082258 | 18 | 81 | 11.3 | 14.5 | 0.00 | 0.00 | 0.00 | 99 | 1015.6 |
| 20260510081756 | 18 | 74 | 12.9 | 14.5 | 0.00 | 0.00 | 0.00 | 99 | 1015.6 |
| 20260510081253 | 18 | 74 | 11.3 | 16.1 | 0.00 | 0.00 | 0.00 | 99 | 1015.6 |
| 20260510080749 | 18 | 79 | 11.3 | 16.1 | 0.00 | 0.00 | 0.00 | 99 | 1015.5 |
| 20260510080244 | 18 | 67 | 14.5 | 16.1 | 0.00 | 0.00 | 0.00 | 99 | 1015.5 |
| 20260510075741 | 18 | 77 | 11.3 | 16.1 | 0.00 | 0.00 | 0.00 | 99 | 1015.7 |
| 20260510075239 | 18 | 77 | 12.9 | 12.9 | 0.00 | 0.00 | 0.00 | 99 | 1015.4 |
| 20260510074736 | 18 | 75 | 12.9 | 16.1 | 0.00 | 0.00 | 0.00 | 99 | 1015.2 |
| 20260510074232 | 18 | 85 | 12.9 | 16.1 | 0.00 | 0.00 | 0.00 | 99 | 1015.3 |
| 20260510073728 | 18 | 76 | 12.9 | 16.1 | 0.00 | 0.00 | 0.00 | 99 | 1015.4 |
| 20260510073224 | 18 | 69 | 12.9 | 14.5 | 0.00 | 0.00 | 0.00 | 99 | 1015.4 |
| 20260510072720 | 18 | 77 | 12.9 | 12.9 | 0.00 | 0.00 | 0.00 | 99 | 1015.2 |
| 20260510072217 | 18 | 70 | 11.3 | 12.9 | 0.00 | 0.00 | 0.00 | 99 | 1015.2 |
| 20260510071714 | 18 | 78 | 9.7 | 11.3 | 0.00 | 0.00 | 0.00 | 99 | 1015.2 |
| 20260510071210 | 18 | 72 | 11.3 | 12.9 | 0.00 | 0.00 | 0.00 | 99 | 1015.1 |
| 20260510070709 | 18 | 76 | 11.3 | 12.9 | 0.00 | 0.00 | 0.00 | 99 | 1015.1 |
| 20260510070205 | 18 | 78 | 9.7 | 11.3 | 0.00 | 0.00 | 0.00 | 99 | 1014.9 |
| 20260510065700 | 19 | 77 | 11.3 | 12.9 | 0.00 | 0.00 | 0.00 | 99 | 1014.9 |
| 20260510065157 | 19 | 79 | 11.3 | 14.5 | 0.00 | 0.00 | 0.00 | 99 | 1015.1 |
| 20260510064653 | 19 | 82 | 12.9 | 14.5 | 0.00 | 0.00 | 0.00 | 99 | 1015.2 |
| 20260510064151 | 19 | 75 | 12.9 | 14.5 | 0.00 | 0.00 | 0.00 | 99 | 1015.1 |
| 20260510063648 | 19 | 80 | 12.9 | 14.5 | 0.00 | 0.00 | 0.00 | 99 | 1015.1 |
| 20260510063144 | 19 | 69 | 12.9 | 12.9 | 0.00 | 0.00 | 0.00 | 99 | 1015.1 |
| 20260510062640 | 19 | 72 | 11.3 | 11.3 | 0.00 | 0.00 | 0.00 | 99 | 1015.2 |
| 20260510062136 | 19 | 75 | 9.7 | 11.3 | 0.00 | 0.00 | 0.00 | 99 | 1015.2 |
| 20260510061632 | 19 | 75 | 9.7 | 11.3 | 0.00 | 0.00 | 0.00 | 99 | 1015.0 |
| 20260510061130 | 19 | 81 | 11.3 | 11.3 | 0.00 | 0.00 | 0.00 | 99 | 1015.0 |
| 20260510060625 | 19 | 86 | 9.7 | 11.3 | 0.00 | 0.00 | 0.00 | 99 | 1015.2 |
| 20260510060122 | 19 | 89 | 9.7 | 11.3 | 0.00 | 0.00 | 0.00 | 99 | 1015.2 |
| 20260510055618 | 19 | 87 | 11.3 | 14.5 | 0.00 | 0.00 | 0.00 | 99 | 1015.1 |
| 20260510055117 | 19 | 88 | 9.7 | 11.3 | 0.00 | 0.00 | 0.00 | 99 | 1015.3 |
| 20260510054611 | 19 | 88 | 9.7 | 11.3 | 0.00 | 0.00 | 0.00 | 99 | 1015.3 |
| 20260510054106 | 19 | 89 | 11.3 | 11.3 | 0.00 | 0.00 | 0.00 | 99 | 1015.3 |
| 20260510053601 | 19 | 91 | 9.7 | 11.3 | 0.00 | 0.00 | 0.00 | 99 | 1015.2 |
| 20260510053058 | 19 | 78 | 11.3 | 12.9 | 0.00 | 0.00 | 0.00 | 99 | 1015.5 |
| 20260510052554 | 19 | 71 | 11.3 | 12.9 | 0.00 | 0.00 | 0.00 | 99 | 1015.4 |
| 20260510052050 | 19 | 73 | 11.3 | 11.3 | 0.00 | 0.00 | 0.00 | 99 | 1015.2 |
| 20260510051546 | 19 | 81 | 11.3 | 11.3 | 0.00 | 0.00 | 0.00 | 99 | 1015.2 |
| 20260510051042 | 19 | 80 | 9.7 | 11.3 | 0.00 | 0.00 | 0.00 | 99 | 1015.3 |
| 20260510050540 | 19 | 74 | 11.3 | 12.9 | 0.00 | 0.00 | 0.00 | 99 | 1015.5 |
| 20260510050036 | 20 | 79 | 9.7 | 11.3 | 0.00 | 3.96 | 3.96 | 99 | 1015.3 |
| 20260510045534 | 20 | 80 | 11.3 | 11.3 | 0.00 | 3.96 | 3.96 | 99 | 1015.2 |
| 20260510045029 | 20 | 80 | 11.3 | 12.9 | 0.00 | 3.96 | 3.96 | 99 | 1015.3 |
| 20260510044526 | 19 | 83 | 11.3 | 12.9 | 0.00 | 3.96 | 3.96 | 99 | 1015.2 |
| 20260510044024 | 20 | 79 | 9.7 | 12.9 | 0.00 | 3.96 | 3.96 | 99 | 1015.3 |
| 20260510043519 | 20 | 87 | 11.3 | 12.9 | 0.00 | 3.96 | 3.96 | 99 | 1015.4 |
| 20260510043014 | 20 | 86 | 9.7 | 11.3 | 0.00 | 3.96 | 3.96 | 99 | 1015.5 |
| 20260510042509 | 20 | 87 | 8.0 | 9.7 | 0.00 | 3.96 | 3.96 | 99 | 1015.5 |
| 20260510042004 | 20 | 87 | 8.0 | 14.5 | 0.00 | 3.96 | 3.96 | 99 | 1015.2 |
| 20260510041502 | 20 | 88 | 9.7 | 14.5 | 0.00 | 3.96 | 3.96 | 99 | 1015.2 |
| 20260510040959 | 20 | 111 | 12.9 | 17.7 | 0.00 | 3.96 | 3.96 | 99 | 1015.0 |
| 20260510040455 | 20 | 108 | 9.7 | 12.9 | 0.00 | 3.96 | 3.96 | 99 | 1015.0 |
| 20260510035952 | 20 | 98 | 9.7 | 12.9 | 0.00 | 3.96 | 3.96 | 99 | 1015.2 |
| 20260510035449 | 20 | 106 | 9.7 | 11.3 | 0.00 | 3.96 | 3.96 | 99 | 1015.2 |
| 20260510034948 | 20 | 91 | 9.7 | 14.5 | 0.00 | 3.96 | 3.96 | 99 | 1015.4 |
| 20260510034447 | 20 | 106 | 8.0 | 16.1 | 0.00 | 3.96 | 3.96 | 99 | 1015.4 |
| 20260510033943 | 20 | 140 | 9.7 | 12.9 | 0.00 | 3.96 | 3.96 | 99 | 1015.1 |
| 20260510033439 | 20 | 109 | 9.7 | 17.7 | 0.00 | 3.96 | 3.96 | 99 | 1015.0 |
| 20260510032937 | 20 | 109 | 11.3 | 17.7 | 0.00 | 3.96 | 3.96 | 99 | 1015.1 |
| 20260510032433 | 20 | 105 | 14.5 | 24.1 | 0.00 | 3.96 | 3.96 | 99 | 1014.9 |
| 20260510031928 | 20 | 112 | 14.5 | 22.5 | 0.00 | 3.96 | 3.96 | 99 | 1015.1 |
| 20260510031424 | 20 | 97 | 9.7 | 20.9 | 0.00 | 3.96 | 3.96 | 99 | 1015.3 |
| 20260510030920 | 20 | 113 | 9.7 | 24.1 | 0.00 | 3.96 | 3.96 | 99 | 1015.3 |
| 20260510030416 | 20 | 111 | 11.3 | 20.9 | 0.00 | 3.96 | 3.96 | 99 | 1015.7 |
| 20260510025914 | 20 | 103 | 9.7 | 16.1 | 0.00 | 3.96 | 3.96 | 99 | 1015.7 |
| 20260510025411 | 20 | 92 | 9.7 | 14.5 | 0.00 | 3.96 | 3.96 | 99 | 1015.9 |
| 20260510024908 | 20 | 102 | 12.9 | 17.7 | 0.00 | 3.96 | 3.96 | 99 | 1016.0 |
| 20260510024404 | 20 | 105 | 9.7 | 16.1 | 0.00 | 3.96 | 3.96 | 99 | 1015.8 |
| 20260510023900 | 20 | 103 | 9.7 | 14.5 | 0.00 | 3.96 | 3.96 | 99 | 1015.4 |
| 20260510023357 | 20 | 97 | 9.7 | 12.9 | 0.00 | 3.96 | 3.96 | 99 | 1015.6 |
| 20260510022854 | 20 | 105 | 14.5 | 16.1 | 0.00 | 3.96 | 3.96 | 99 | 1015.6 |
| 20260510022353 | 20 | 91 | 9.7 | 12.9 | 0.00 | 3.96 | 3.96 | 99 | 1015.5 |
| 20260510021852 | 20 | 87 | 9.7 | 14.5 | 0.00 | 3.96 | 3.96 | 99 | 1015.3 |
| 20260510021350 | 20 | 115 | 9.7 | 16.1 | 0.00 | 3.96 | 3.96 | 99 | 1015.4 |
| 20260510020846 | 20 | 104 | 11.3 | 16.1 | 0.00 | 3.96 | 3.96 | 99 | 1015.5 |
| 20260510020347 | 20 | 91 | 11.3 | 11.3 | 0.00 | 3.96 | 3.96 | 99 | 1015.9 |
| 20260510015842 | 20 | 83 | 9.7 | 11.3 | 0.00 | 3.96 | 3.96 | 99 | 1015.8 |
| 20260510015339 | 20 | 96 | 12.9 | 14.5 | 0.00 | 3.96 | 3.96 | 99 | 1015.5 |
| 20260510014834 | 20 | 103 | 8.0 | 16.1 | 0.00 | 3.96 | 3.96 | 99 | 1015.1 |
| 20260510014331 | 20 | 105 | 9.7 | 19.3 | 0.00 | 3.96 | 3.96 | 99 | 1015.1 |
| 20260510013827 | 20 | 99 | 9.7 | 16.1 | 0.00 | 3.96 | 3.96 | 99 | 1015.5 |
| 20260510013323 | 20 | 101 | 12.9 | 12.9 | 0.00 | 3.96 | 3.96 | 99 | 1015.5 |
| 20260510012818 | 20 | 101 | 12.9 | 19.3 | 0.00 | 3.96 | 3.96 | 99 | 1015.4 |
| 20260510012318 | 20 | 87 | 9.7 | 16.1 | 0.00 | 3.96 | 3.96 | 99 | 1015.4 |
| 20260510011813 | 20 | 84 | 12.9 | 16.1 | 0.00 | 3.96 | 3.96 | 99 | 1015.4 |
| 20260510011309 | 20 | 87 | 12.9 | 14.5 | 0.00 | 3.96 | 3.96 | 99 | 1015.5 |
| 20260510010806 | 20 | 78 | 11.3 | 14.5 | 0.00 | 3.96 | 3.96 | 99 | 1015.4 |
| 20260510010303 | 20 | 76 | 12.9 | 14.5 | 0.00 | 3.96 | 3.96 | 99 | 1015.3 |
| 20260510005759 | 20 | 64 | 14.5 | 14.5 | 0.00 | 3.96 | 3.96 | 99 | 1015.3 |
| 20260510005255 | 20 | 92 | 11.3 | 14.5 | 0.00 | 3.96 | 3.96 | 99 | 1015.4 |
| 20260510004754 | 20 | 87 | 11.3 | 14.5 | 0.00 | 3.96 | 3.96 | 99 | 1015.4 |
| 20260510004251 | 20 | 86 | 11.3 | 12.9 | 0.00 | 3.96 | 3.96 | 99 | 1015.2 |
| 20260510003748 | 20 | 88 | 9.7 | 11.3 | 0.00 | 3.96 | 3.96 | 99 | 1015.3 |
| 20260510003245 | 20 | 76 | 11.3 | 12.9 | 0.00 | 3.96 | 3.96 | 99 | 1015.3 |
| 20260510002743 | 20 | 79 | 9.7 | 9.7 | 0.00 | 3.96 | 3.96 | 99 | 1015.5 |
| 20260510002241 | 20 | 84 | 11.3 | 14.5 | 0.00 | 3.96 | 3.96 | 99 | 1015.1 |
| 20260510001737 | 20 | 93 | 12.9 | 12.9 | 0.00 | 3.96 | 3.96 | 99 | 1015.0 |
| 20260510001236 | 20 | 91 | 11.3 | 11.3 | 0.00 | 3.96 | 3.96 | 99 | 1014.7 |
| 20260510000732 | 20 | 89 | 12.9 | 16.1 | 0.00 | 3.96 | 3.96 | 99 | 1014.5 |
| 20260510000229 | 20 | 89 | 11.3 | 14.5 | 0.00 | 3.96 | 3.96 | 99 | 1014.6 |
| 20260509235726 | 20 | 93 | 12.9 | 12.9 | 0.00 | 3.96 | 3.96 | 99 | 1014.5 |
| 20260509235222 | 20 | 86 | 9.7 | 11.3 | 0.00 | 3.96 | 3.96 | 99 | 1014.4 |
| 20260509234718 | 20 | 101 | 11.3 | 14.5 | 0.00 | 3.96 | 3.96 | 99 | 1014.3 |
| 20260509234215 | 20 | 103 | 12.9 | 14.5 | 0.00 | 3.96 | 3.96 | 99 | 1014.1 |
| 20260509233713 | 20 | 97 | 9.7 | 14.5 | 0.00 | 3.96 | 3.96 | 99 | 1014.1 |
| 20260509233210 | 20 | 95 | 9.7 | 16.1 | 0.00 | 3.96 | 3.96 | 99 | 1014.1 |
| 20260509232707 | 20 | 103 | 14.5 | 17.7 | 0.00 | 3.96 | 3.96 | 99 | 1013.9 |
| 20260509232204 | 20 | 100 | 11.3 | 12.9 | 0.00 | 3.96 | 3.96 | 99 | 1014.1 |
| 20260509231700 | 20 | 94 | 12.9 | 17.7 | 0.00 | 3.96 | 3.96 | 99 | 1013.9 |
| 20260509231158 | 20 | 97 | 17.7 | 17.7 | 0.00 | 3.96 | 3.96 | 99 | 1013.8 |
| 20260509230655 | 20 | 85 | 14.5 | 17.7 | 0.00 | 3.96 | 3.96 | 99 | 1013.8 |
| 20260509230151 | 20 | 85 | 11.3 | 16.1 | 0.00 | 3.96 | 3.96 | 99 | 1014.1 |
| 20260509225647 | 20 | 96 | 9.7 | 19.3 | 0.00 | 3.96 | 3.96 | 99 | 1013.9 |
| 20260509225143 | 20 | 95 | 9.7 | 12.9 | 0.00 | 3.96 | 3.96 | 99 | 1013.6 |
| 20260509224638 | 20 | 106 | 17.7 | 17.7 | 0.00 | 3.96 | 3.96 | 99 | 1013.1 |
| 20260509224136 | 19 | 83 | 11.3 | 20.9 | 0.00 | 3.96 | 3.96 | 99 | 1012.7 |
| 20260509223632 | 19 | 82 | 20.9 | 20.9 | 0.00 | 3.96 | 3.96 | 99 | 1013.2 |
| 20260509223130 | 19 | 83 | 9.7 | 20.9 | 0.00 | 3.96 | 3.96 | 99 | 1013.1 |
| 20260509222627 | 19 | 67 | 12.9 | 17.7 | 0.05 | 3.96 | 3.96 | 99 | 1013.1 |
| 20260509222122 | 19 | 82 | 14.5 | 24.1 | 0.05 | 3.96 | 3.96 | 99 | 1013.0 |
| 20260509221618 | 19 | 92 | 17.7 | 20.9 | 0.05 | 3.96 | 3.96 | 99 | 1013.2 |
| 20260509221114 | 19 | 93 | 14.5 | 20.9 | 0.05 | 3.94 | 3.94 | 99 | 1013.4 |
| 20260509220610 | 19 | 93 | 16.1 | 22.5 | 0.23 | 3.94 | 3.94 | 99 | 1013.4 |
| 20260509220107 | 19 | 100 | 11.3 | 24.1 | 0.30 | 3.94 | 3.94 | 99 | 1013.7 |
| 20260509215602 | 19 | 86 | 11.3 | 20.9 | 0.18 | 3.89 | 3.89 | 99 | 1014.0 |
| 20260509215100 | 20 | 94 | 14.5 | 19.3 | 0.23 | 3.89 | 3.89 | 99 | 1014.0 |
| 20260509214557 | 19 | 96 | 17.7 | 24.1 | 0.18 | 3.86 | 3.86 | 99 | 1014.1 |
| 20260509214053 | 19 | 96 | 17.7 | 19.3 | 0.13 | 3.86 | 3.86 | 99 | 1014.2 |
| 20260509213549 | 19 | 85 | 14.5 | 16.1 | 0.05 | 3.84 | 3.84 | 99 | 1014.2 |
| 20260509213046 | 20 | 104 | 11.3 | 19.3 | 0.00 | 3.84 | 3.84 | 99 | 1014.4 |
| 20260509212543 | 19 | 100 | 11.3 | 14.5 | 0.00 | 3.84 | 3.84 | 99 | 1014.3 |
| 20260509212040 | 19 | 101 | 9.7 | 20.9 | 0.00 | 3.84 | 3.84 | 99 | 1014.1 |
| 20260509211536 | 19 | 88 | 11.3 | 17.7 | 0.00 | 3.84 | 3.84 | 99 | 1014.1 |
| 20260509211033 | 19 | 85 | 16.1 | 22.5 | 0.00 | 3.84 | 3.84 | 99 | 1014.1 |
| 20260509210530 | 19 | 92 | 12.9 | 16.1 | 0.00 | 3.84 | 3.84 | 99 | 1014.3 |
| 20260509210026 | 19 | 85 | 16.1 | 19.3 | 0.00 | 3.84 | 3.84 | 99 | 1013.9 |
| 20260509205520 | 19 | 87 | 14.5 | 17.7 | 0.00 | 3.84 | 3.84 | 99 | 1014.4 |
| 20260509205016 | 19 | 83 | 14.5 | 22.5 | 0.00 | 3.84 | 3.84 | 99 | 1014.4 |
| 20260509204512 | 19 | 74 | 16.1 | 20.9 | 0.00 | 3.84 | 3.84 | 99 | 1014.5 |
| 20260509204009 | 19 | 75 | 17.7 | 25.7 | 0.00 | 3.84 | 3.84 | 99 | 1013.9 |
| 20260509203505 | 19 | 80 | 16.1 | 29.0 | 0.00 | 3.84 | 3.84 | 99 | 1014.2 |
| 20260509203004 | 19 | 92 | 14.5 | 20.9 | 0.00 | 3.84 | 3.84 | 99 | 1015.0 |
| 20260509202458 | 19 | 92 | 11.3 | 20.9 | 0.00 | 3.84 | 3.84 | 99 | 1015.0 |
| 20260509201959 | 19 | 84 | 16.1 | 20.9 | 0.00 | 3.84 | 3.84 | 99 | 1015.0 |
| 20260509201454 | 19 | 99 | 16.1 | 20.9 | 0.61 | 3.84 | 3.84 | 99 | 1014.5 |
| 20260509200952 | 19 | 109 | 14.5 | 25.7 | 1.02 | 3.84 | 3.84 | 99 | 1014.0 |
| 20260509200447 | 19 | 82 | 20.9 | 20.9 | 0.66 | 3.73 | 3.73 | 99 | 1014.8 |
| 20260509195943 | 19 | 96 | 9.7 | 9.7 | 0.30 | 3.66 | 3.66 | 99 | 1015.3 |
| 20260509195439 | 19 | 102 | 8.0 | 17.7 | 0.53 | 3.63 | 3.63 | 99 | 1015.2 |
| 20260509194938 | 19 | 65 | 24.1 | 32.2 | 1.37 | 3.61 | 3.61 | 99 | 1014.5 |
| 20260509194434 | 20 | 79 | 17.7 | 20.9 | 2.29 | 3.48 | 3.48 | 99 | 1015.0 |
| 20260509193931 | 20 | 89 | 9.7 | 9.7 | 1.07 | 3.25 | 3.25 | 99 | 1014.9 |
| 20260509193431 | 20 | 93 | 11.3 | 14.5 | 0.36 | 3.10 | 3.10 | 99 | 1014.6 |
| 20260509192927 | 20 | 96 | 19.3 | 19.3 | 0.43 | 3.05 | 3.05 | 99 | 1014.4 |
| 20260509192424 | 20 | 102 | 12.9 | 20.9 | 0.23 | 3.02 | 3.02 | 99 | 1014.1 |
| 20260509191919 | 20 | 96 | 11.3 | 17.7 | 0.00 | 2.97 | 2.97 | 99 | 1014.2 |
| 20260509191414 | 20 | 120 | 12.9 | 20.9 | 0.05 | 2.97 | 2.97 | 99 | 1014.2 |
| 20260509190910 | 20 | 92 | 9.7 | 14.5 | 0.30 | 2.97 | 2.97 | 99 | 1014.4 |
| 20260509190408 | 20 | 92 | 14.5 | 20.9 | 0.97 | 2.97 | 2.97 | 99 | 1014.6 |
| 20260509185906 | 20 | 79 | 11.3 | 22.5 | 1.02 | 2.92 | 2.92 | 99 | 1014.5 |
| 20260509185402 | 19 | 83 | 14.5 | 20.9 | 0.23 | 2.79 | 2.79 | 99 | 1014.2 |
| 20260509184859 | 19 | 96 | 11.3 | 20.9 | 0.00 | 2.77 | 2.77 | 99 | 1014.5 |
| 20260509184355 | 19 | 103 | 14.5 | 22.5 | 0.00 | 2.77 | 2.77 | 99 | 1014.6 |
| 20260509183853 | 19 | 95 | 16.1 | 24.1 | 0.00 | 2.77 | 2.77 | 99 | 1014.6 |
| 20260509183347 | 19 | 83 | 14.5 | 24.1 | 0.00 | 2.77 | 2.77 | 99 | 1014.5 |
| 20260509182843 | 19 | 98 | 14.5 | 20.9 | 0.23 | 2.77 | 2.77 | 99 | 1014.9 |
| 20260509182341 | 19 | 77 | 12.9 | 22.5 | 1.63 | 2.77 | 2.77 | 99 | 1014.7 |
| 20260509181838 | 19 | 80 | 16.1 | 24.1 | 2.82 | 2.72 | 2.72 | 99 | 1015.2 |
| 20260509181335 | 19 | 91 | 9.7 | 19.3 | 1.55 | 2.49 | 2.49 | 99 | 1015.2 |
| 20260509180833 | 19 | 116 | 11.3 | 19.3 | 0.53 | 2.24 | 2.24 | 99 | 1015.3 |
| 20260509180328 | 19 | 104 | 9.7 | 16.1 | 2.21 | 2.24 | 2.24 | 99 | 1015.2 |
| 20260509175825 | 19 | 98 | 17.7 | 24.1 | 2.11 | 2.11 | 2.11 | 99 | 1014.9 |
| 20260509175322 | 19 | 88 | 14.5 | 14.5 | 0.79 | 1.83 | 1.83 | 99 | 1015.6 |
| 20260509174818 | 19 | 88 | 11.3 | 14.5 | 1.55 | 1.75 | 1.75 | 99 | 1015.5 |
| 20260509174313 | 19 | 86 | 14.5 | 22.5 | 1.27 | 1.68 | 1.68 | 99 | 1015.3 |
| 20260509173809 | 19 | 115 | 14.5 | 17.7 | 0.18 | 1.47 | 1.47 | 99 | 1015.6 |
| 20260509173305 | 19 | 96 | 9.7 | 22.5 | 0.61 | 1.47 | 1.47 | 99 | 1015.2 |
| 20260509172801 | 19 | 82 | 14.5 | 17.7 | 0.43 | 1.42 | 1.42 | 99 | 1014.5 |
| 20260509172253 | 19 | 94 | 11.3 | 19.3 | 0.23 | 1.37 | 1.37 | 99 | 1014.7 |
| 20260509171749 | 19 | 96 | 14.5 | 16.1 | 1.19 | 1.37 | 1.37 | 99 | 1014.5 |
| 20260509171245 | 19 | 96 | 12.9 | 16.1 | 3.07 | 1.32 | 1.32 | 99 | 1014.9 |
| 20260509170742 | 19 | 95 | 20.9 | 33.8 | 5.03 | 1.17 | 1.17 | 99 | 1014.7 |
| 20260509170238 | 19 | 103 | 14.5 | 24.1 | 3.73 | 0.76 | 0.76 | 98 | 1014.4 |
| 20260509165736 | 19 | 95 | 16.1 | 19.3 | 1.93 | 0.41 | 0.41 | 98 | 1014.8 |
| 20260509165232 | 19 | 88 | 12.9 | 14.5 | 0.36 | 0.15 | 0.15 | 98 | 1015.1 |
| 20260509164728 | 19 | 71 | 9.7 | 14.5 | 0.05 | 0.10 | 0.10 | 98 | 1014.9 |
| 20260509164224 | 20 | 79 | 12.9 | 16.1 | 0.00 | 0.08 | 0.08 | 98 | 1014.9 |
| 20260509163721 | 20 | 89 | 12.9 | 14.5 | 0.00 | 0.08 | 0.08 | 98 | 1014.5 |
| 20260509163217 | 20 | 92 | 16.1 | 20.9 | 0.00 | 0.08 | 0.08 | 98 | 1014.7 |
| 20260509162715 | 20 | 84 | 14.5 | 17.7 | 0.00 | 0.08 | 0.08 | 98 | 1014.8 |
| 20260509162210 | 20 | 96 | 16.1 | 24.1 | 0.00 | 0.08 | 0.08 | 98 | 1014.8 |
| 20260509161706 | 20 | 87 | 14.5 | 19.3 | 0.00 | 0.08 | 0.08 | 98 | 1014.9 |
| 20260509161203 | 20 | 77 | 20.9 | 22.5 | 0.00 | 0.08 | 0.08 | 98 | 1014.9 |
| 20260509160658 | 20 | 75 | 14.5 | 22.5 | 0.00 | 0.08 | 0.08 | 98 | 1015.0 |
| 20260509160154 | 20 | 86 | 12.9 | 22.5 | 0.00 | 0.08 | 0.08 | 98 | 1014.8 |
| 20260509155650 | 20 | 76 | 14.5 | 19.3 | 0.00 | 0.08 | 0.08 | 98 | 1014.8 |
| 20260509155146 | 20 | 87 | 16.1 | 19.3 | 0.00 | 0.08 | 0.08 | 98 | 1015.0 |
| 20260509154642 | 19 | 79 | 14.5 | 24.1 | 0.00 | 0.08 | 0.08 | 98 | 1015.2 |
| 20260509154140 | 19 | 96 | 12.9 | 22.5 | 0.00 | 0.08 | 0.08 | 98 | 1015.3 |
| 20260509153636 | 19 | 92 | 17.7 | 22.5 | 0.00 | 0.08 | 0.08 | 99 | 1015.4 |
| 20260509153133 | 19 | 103 | 19.3 | 25.7 | 0.00 | 0.08 | 0.08 | 99 | 1015.0 |
| 20260509152628 | 19 | 75 | 14.5 | 17.7 | 0.00 | 0.08 | 0.08 | 99 | 1015.0 |
| 20260509152126 | 19 | 116 | 14.5 | 22.5 | 0.00 | 0.08 | 0.08 | 99 | 1015.0 |
| 20260509151622 | 19 | 91 | 12.9 | 19.3 | 0.00 | 0.08 | 0.08 | 99 | 1014.7 |
| 20260509151120 | 18 | 74 | 14.5 | 19.3 | 0.00 | 0.08 | 0.08 | 99 | 1014.7 |
| 20260509150618 | 18 | 86 | 17.7 | 24.1 | 0.00 | 0.08 | 0.08 | 99 | 1014.8 |
| 20260509150116 | 18 | 84 | 9.7 | 24.1 | 0.00 | 0.08 | 0.08 | 99 | 1015.0 |
| 20260509145611 | 18 | 79 | 14.5 | 19.3 | 0.05 | 0.08 | 0.08 | 99 | 1015.1 |
| 20260509145107 | 18 | 63 | 20.9 | 20.9 | 0.05 | 0.08 | 0.08 | 99 | 1015.0 |
| 20260509144604 | 18 | 100 | 19.3 | 24.1 | 0.00 | 0.08 | 0.08 | 99 | 1015.3 |
| 20260509144101 | 18 | 85 | 16.1 | 20.9 | 0.00 | 0.08 | 0.08 | 99 | 1014.9 |
| 20260509143558 | 18 | 77 | 12.9 | 19.3 | 0.00 | 0.08 | 0.08 | 99 | 1014.6 |
| 20260509143056 | 19 | 96 | 22.5 | 25.7 | 0.05 | 0.08 | 0.08 | 99 | 1015.2 |
| 20260509142551 | 19 | 71 | 16.1 | 19.3 | 0.05 | 0.08 | 0.08 | 99 | 1014.9 |
| 20260509142047 | 18 | 71 | 17.7 | 24.1 | 0.00 | 0.05 | 0.05 | 99 | 1014.7 |
| 20260509141543 | 18 | 61 | 24.1 | 25.7 | 0.05 | 0.05 | 0.05 | 99 | 1014.5 |
| 20260509141040 | 18 | 72 | 14.5 | 22.5 | 0.05 | 0.05 | 0.05 | 99 | 1014.4 |
| 20260509140537 | 19 | 75 | 24.1 | 29.0 | 0.05 | 0.05 | 0.05 | 99 | 1014.3 |
| 20260509140035 | 19 | 44 | 19.3 | 24.1 | 0.13 | 0.05 | 0.05 | 99 | 1014.3 |
| 20260509135531 | 19 | 61 | 17.7 | 25.7 | 0.23 | 0.05 | 0.05 | 99 | 1014.3 |
| 20260509135029 | 19 | 61 | 16.1 | 24.1 | 0.05 | 0.00 | 0.00 | 99 | 1014.1 |
| 20260509134526 | 19 | 68 | 16.1 | 20.9 | 0.00 | 0.00 | 0.00 | 99 | 1014.3 |
| 20260509134024 | 19 | 75 | 17.7 | 25.7 | 0.00 | 0.00 | 0.00 | 99 | 1014.2 |
| 20260509133520 | 19 | 75 | 14.5 | 20.9 | 0.00 | 0.00 | 0.00 | 99 | 1014.3 |
| 20260509133018 | 20 | 78 | 14.5 | 20.9 | 0.00 | 0.00 | 0.00 | 99 | 1014.5 |
| 20260509132516 | 20 | 71 | 17.7 | 29.0 | 0.00 | 0.00 | 0.00 | 99 | 1014.5 |
| 20260509132013 | 20 | 65 | 25.7 | 25.7 | 0.00 | 0.00 | 0.00 | 99 | 1014.4 |
| 20260509131509 | 20 | 61 | 20.9 | 24.1 | 0.00 | 0.00 | 0.00 | 99 | 1014.4 |
| 20260509131006 | 20 | 56 | 17.7 | 27.4 | 0.00 | 0.00 | 0.00 | 99 | 1014.2 |
| 20260509130502 | 20 | 49 | 24.1 | 30.6 | 0.00 | 0.00 | 0.00 | 99 | 1014.0 |
| 20260509125959 | 20 | 53 | 20.9 | 32.2 | 0.00 | 0.00 | 0.00 | 99 | 1014.2 |
| 20260509125455 | 21 | 44 | 17.7 | 24.1 | 0.00 | 0.00 | 0.00 | 99 | 1014.2 |
| 20260509124951 | 22 | 58 | 14.5 | 24.1 | 0.00 | 0.00 | 0.00 | 99 | 1014.0 |
| 20260509124449 | 22 | 43 | 20.9 | 22.5 | 0.00 | 0.00 | 0.00 | 99 | 1013.9 |
| 20260509123945 | 22 | 54 | 14.5 | 20.9 | 0.00 | 0.00 | 0.00 | 99 | 1013.8 |
| 20260509123443 | 22 | 83 | 9.7 | 14.5 | 0.00 | 0.00 | 0.00 | 99 | 1013.8 |
| 20260509122939 | 22 | 86 | 9.7 | 11.3 | 0.00 | 0.00 | 0.00 | 99 | 1013.7 |
| 20260509122436 | 22 | 78 | 9.7 | 12.9 | 0.00 | 0.00 | 0.00 | 99 | 1013.5 |
| 20260509121932 | 22 | 82 | 9.7 | 12.9 | 0.00 | 0.00 | 0.00 | 99 | 1013.4 |
| 20260509121430 | 22 | 84 | 9.7 | 11.3 | 0.00 | 0.00 | 0.00 | 99 | 1013.3 |
| 20260509120928 | 22 | 83 | 9.7 | 11.3 | 0.00 | 0.00 | 0.00 | 99 | 1013.3 |
| 20260509120425 | 22 | 84 | 9.7 | 9.7 | 0.00 | 0.00 | 0.00 | 99 | 1013.3 |
| 20260509115923 | 22 | 89 | 8.0 | 11.3 | 0.00 | 0.00 | 0.00 | 99 | 1013.4 |
| 20260509115420 | 22 | 78 | 9.7 | 11.3 | 0.00 | 0.00 | 0.00 | 99 | 1013.6 |
| 20260509114918 | 22 | 79 | 9.7 | 11.3 | 0.00 | 0.00 | 0.00 | 99 | 1013.5 |
| 20260509114416 | 22 | 86 | 9.7 | 11.3 | 0.00 | 0.00 | 0.00 | 99 | 1013.4 |
| 20260509113916 | 22 | 89 | 9.7 | 9.7 | 0.00 | 0.00 | 0.00 | 99 | 1013.6 |
| 20260509113412 | 22 | 88 | 9.7 | 11.3 | 0.00 | 0.00 | 0.00 | 99 | 1013.6 |
| 20260509112904 | 22 | 82 | 9.7 | 11.3 | 0.00 | 0.00 | 0.00 | 99 | 1013.4 |
| 20260509112401 | 22 | 79 | 9.7 | 11.3 | 0.00 | 0.00 | 0.00 | 99 | 1013.5 |
| 20260509111858 | 22 | 81 | 9.7 | 11.3 | 0.00 | 0.00 | 0.00 | 99 | 1013.3 |
| 20260509111354 | 22 | 89 | 9.7 | 11.3 | 0.00 | 0.00 | 0.00 | 99 | 1013.2 |
| 20260509110853 | 22 | 84 | 9.7 | 9.7 | 0.00 | 0.00 | 0.00 | 99 | 1013.2 |
| 20260509110348 | 22 | 91 | 9.7 | 11.3 | 0.00 | 0.00 | 0.00 | 99 | 1012.7 |
| 20260509105847 | 22 | 96 | 9.7 | 12.9 | 0.00 | 0.00 | 0.00 | 99 | 1012.6 |
| 20260509105345 | 22 | 102 | 9.7 | 11.3 | 0.00 | 0.00 | 0.00 | 99 | 1012.5 |
| 20260509104841 | 22 | 96 | 8.0 | 9.7 | 0.00 | 0.00 | 0.00 | 99 | 1012.7 |